sat.trackr.live / text

‹ back to catalog

STARLINK-3251

NORAD 49729 · 2021-115F

PAYLOAD ACTIVE UNKNOWN

§ Identity

Operator
Country
US
Launch date
2021-12-02
Launch site
AFETR
Launch vehicle
Mass (kg)
RCS (m²)

Purposes: comms

External: N2YO · Heavens-Above · Gunter

§ Orbital elements

Epoch: 2026-09-19T23:22:52.054176Z

Period
94.01 min
Inclination
53.1609°
Eccentricity
0.0001115
Mean motion
15.31709336 rev/d
Perigee alt
469.9 km
Apogee alt
471.5 km
Semi-major
6,848.8 km
B*
4.3099e-5
RAAN
354.2569°
Arg perigee
69.2039°
Mean anomaly
290.9082°
Rev number
26,489

§ Raw data

STARLINK-32511 49729U 21115F   26262.97421359  .00000973  00000+0  43099-4 0  99962 49729  53.1609 354.2569 0001115  69.2039 290.9082 15.31709336264895

JSON: /api/v1/satellites/49729 · /tle

For live sub-satellite position, see the globe view (requires WebGL).

§ Visibility from observer

Set your observer location to see the next 7 days of passes ≥ 10°. The values pass through the URL so the page stays shareable.

No JS? Fill the form by hand. The geolocation button needs JavaScript.